Погода в Ряжске

Хотите узнать прогноз погоды в Ряжске? Тогда Вам сюда: Погода в Ряжске

Поиск расширенной информации на нашем сайте:

Полезная информация:

Новости сайта



02.01.2020
Опубликован Долгосрочный прогноз погоды по городам России и ближнего зарубежья на январь 2020 года.
Карты: Прогноз на январь и февраль 2020 года, Сравнение прогнозируемой аномалии приземной температуры воздуха на январь 2020 года по разным моделям.




Погода в Ряжске - сегодня

Время (UTC), дата Ветер
(°,м/с) 
Видим.   Явления Облачность Т
(°С)
Тd
(°С)
f(%) Тe
(°С)
Pmin
(гПа)
dP
(гПа)
Po
(мм)
O2
(г/м3)
Тmin Tmax R s Состояние
почвы
06 05.04.20 310 (СЗ) 10 км    ясно 
+3.7 -4.8 54 +3  1023.6  0.5  756  301  -5         
09 05.04.20 290 (З) 10 км    9/8 1000 м верхняя 
[Cu med, cong|Ci sp]
+7.7 -9.1 29 +7  1021.9  -1.5  755  297           
12 05.04.20 320 (СЗ) 4-11{12}  10 км    9/8 600 м кучево-дожд., верхняя 
[Cb calv|Ci sp]
+3.5 -1.5 70 +2  1021.8  -0.4  754  300           
15 05.04.20 340 (С) 3{13}  10 км  в посл. час ливневой снег  9/6 600 м кучево-дожд., средняя, верхняя 
[Cb calv|Ac trans|Ci sp]
+0.3 -1.9 85 -1  1022.9  755  304    +8.7     
18 05.04.20 310 (СЗ) 10 км  {ливн. осадки}  3/0 верхняя 
[Ci sp]
-0.2 -3.6 78 -2  1024.9  1.8  757  305           
21 05.04.20 330 (СЗ) 10 км    ясно 
-1.8 -6.1 72 -1  1025.4  0.4  757  308           
00 06.04.20 310 (СЗ) 10 км    ясно 
-1.9 -7.8 64 -4  1026.1  0.7  757  308           
03 06.04.20 310 (СЗ) 10 км    3/0 средняя 
[Ac trans]
-2.9 -8 68 -4  1027.4  1.3  758  310  -2.9        замёрзшая 
06 06.04.20 320 (СЗ) 5-10{11}  10 км    ясно 
+0.1 -8.1 54 -3  1028.8  1.5  759  307  -2.9         
09 06.04.20 320 (СЗ) 6-12{12}  10 км    8/8 1000 м 
[Cu med, cong]
+3.4 -10.8 34 +1  1029.2  0.6  760  303           
12 06.04.20 330 (СЗ) 5{12}  10 км    8/4 600 м кучево-дожд., средняя, верхняя 
[Cb calv|Ac trans|Ci sp]
+3.6 -14.2 26 +1  1029.3  0.1  760  303           
15 06.04.20 330 (СЗ) 3{11}  10 км    8/3 600 м кучево-дожд., средняя, верхняя 
[Cb calv|Ac trans|Ci sp]
+3.1 -14.2 27 +2  1030.5  1.2  761  304    +5.1       
18 06.04.20 330 (СЗ) 10 км    3/0 средняя 
[Ac trans]
-1.7 -12.9 42 -1  1032.3  1.4  762  310           
21 06.04.20 350 (С) 10 км    3/0 средняя 
[Ac trans]
-4.3 -12.1 54 -4  1033.3  0.9  763  313           
00 07.04.20 360 (С) 10 км    3/0 средняя 
[Ac trans]
-6.2 -11.7 65 -6  1035  1.5  764  316           
03 07.04.20 340 (С) 10 км    3/0 средняя 
[Ac trans]
-6.4 -11.6 67 -6  1036.8  1.8  765  317  -6.4        сухая 
06 07.04.20 320 (СЗ) 10 км    ясно 
+1.7 -10.6 40 +1  1037.3  766  308           
09 07.04.20 300 (СЗ) 10 км    ясно 
+4.8 -16.4 20 +4  1036  -1.1  765  304           
12 07.04.20 310 (СЗ) 20000 м    ясно 
+7.1 -17.3 16 +7  1033.8  -2.1  763  301           
15 07.04.20 280 (З) 20000 м    6/0 средняя, верхняя 
[Ac trans|Ci sp]
+8.2 -14.6 18 +8  1030.9  -2.8  761  299    +8.6       
18 07.04.20 170 (Ю) 10 км    6/0 верхняя 
[Ci sp]
+2.8 -12.8 31 +4  1029.8  -1.4  760  304           
21 07.04.20 тихо ()   10 км    10/10 600 м 
[Sc]
+2.1 -7.6 49 +2  1027.7  -2.1  759  304           
00 08.04.20 210 (ЮЗ) 10 км    8/5 1000 м средняя 
[Sc|Ac trans]
+3.5 -4.5 56 +4  1024.4  -3.1  756  301           
03 08.04.20 220 (ЮЗ) 10 км    ясно 
+4.3 -3.2 58 +4  1020.5  -3.8  754  299  +0.8        сухая 
06 08.04.20 240 (ЮЗ) 10 км    ясно 
+10.7 -4.2 35 +10  1016.7  -3.4  751  292           
Время (UTC), дата Ветер
(°,м/с) 
Видим.   Явления Облачность Т
(°С)
Тd
(°С)
f(%) Тe
(°С)
Pmin
(гПа)
dP
(гПа)
Po
(мм)
O2
(г/м3)
Тmin Tmax R s Состояние
почвы

Для получения пояснительной информации подведите курсор к названию столбца.

ПОГОДА в Ряжске - архив

Всё, что Вы хотите узнать о погоде в Ряжске - удобно и подробно!

Выберите нужную дату (начиная с 1 января 2019* года) и нажмите кнопку "Найти".
Будут отображены архивные сводки погоды по пункту Ряжск, начиная с указанной даты.


Отображать данные в формате CSV (для использования в таблицах Excel)


Внимание! Наш архив погоды предназначен исключительно для личного некоммерческого использования в познавательных целях. Если Вам необходимы официальные справки о состоянии погоды (для производственных, юридических, коммерческих и т.п. целей), обращайтесь в органы Росгидромета.

*Примечание: данная дата относится к архиву по метеостанциям СССР (Россия, СНГ, Балтия).
Архив по метеостанциям Зарубежной Европы и Азии (кроме Китая) хранится 10 дней, по другим регионам земного шара (Китай, Африка, Америка, Австралия, Океания) - 1 день.

Ряжск - район местоположения метеостанции


Название, широта, долгота, высота метеостанции:
Ряжск 53.7°ш. 40.1°д. 127 м над ур. моря [Российская Федерация]

Дополнительная информация

В oтличие oт бoльшинства пoгoдных сайтoв мы публикуем пoдрoбную метеoинфoрмацию в детальнoм прoфессиoнальнoм фoрмате.

Характеристики температуры и влажнoсти вoздуха измеряются на высoте 2 м в тени вдали oт зданий и деревьев.
Скoрoсть ветра измеряется на высoте 10 м (на урoвне рoста челoвека скoрoсть ветра ниже в 1.5-2 раза). Если метеoстанция нахoдится в гoрoде или в лесу, тo скoрoсть ветра занижена на 2-4 м/с пo сравнению с oткрытым местoм. Скoрoсть ветра над акватoриями крупных рек и oзёр, а также на вершинах хoлмoв на 2-5 м/с выше, чем в oбычных услoвиях.
Атмoсфернoе давление в разных тoчках местнoсти мoжет значительнo oтличаться oт давления на метеoстанции, в зависимoсти oт услoвий рельефа (при пoдъёме на 10 м давление пoнижается примернo на 1 мм рт.ст.).